Tracking 35334 objects as of 13-Sep-2026
HD Live streaming from Space Station
objects crossing your sky now

MDASAT-1B


MDASAT-1B is no longer on orbit
MDASAT-1B is classified as:


NORAD ID: 51050
Int'l Code: 2022-002BU
Launch date: January 13, 2022
Source: South Africa (SAFR)
Launch site: AIR FORCE EASTERN TEST RANGE (AFETR)
Decay date: 2025-02-28

Uplink (MHz):
Downlink (MHz): 401.050
Beacon (MHz):
Mode: 9k6 GMSK
Call sign:
Status: Reentered

Your satellite tracking list
Your tracking list is empty




NASA's NSSDC Master Catalog

Two Line Element Set (TLE):
1 51050U 22002BU  25055.92007920  .13701385  25265-5  33496-3 0  9994
2 51050  97.3189 137.9096 0012483 268.8482  91.1390 16.45128402173750
Source of the keplerian elements: AFSPC